Overview Statistics Trail Chart Weather Telemetry Raw packets
 

This is the latest recevied telemetry packets stored in our database for station/object IK5ZXH-13. If no packets are shown the sender has not sent any telemetry packets the latest 10 day(s).

Telemetry packets is used to share measurements like repeteater parameters, battery voltage, radiation readings (or any other measurements).

<< 1 2 3 4 >>
Time Press* Temp.in* Hum* QNH* Temp.out*
1788287590 1012 hPa 32 C deg 46.4 % 1022.9 hPa 0 C deg
1788283956 1011.8 hPa 32.3 C deg 48.4 % 1022.7 hPa 0 C deg
1788280285 1011.4 hPa 32.3 C deg 51.8 % 1022.3 hPa 0 C deg
1788278447 1011.4 hPa 32.1 C deg 51.9 % 1022.3 hPa 0 C deg
1788276634 1011.3 hPa 32 C deg 52.1 % 1022.2 hPa 0 C deg
1788274808 1011.3 hPa 31.8 C deg 50.4 % 1022.2 hPa 0 C deg
1788272962 1011.3 hPa 31.7 C deg 49.5 % 1022.2 hPa 0 C deg
1788271126 1011.4 hPa 31.6 C deg 49.3 % 1022.3 hPa 0 C deg
1788269295 1011.6 hPa 31.6 C deg 50.8 % 1022.6 hPa 0 C deg
1788267503 1011.9 hPa 31.2 C deg 50.6 % 1022.8 hPa 0 C deg
1788267458 1011.9 hPa 31.2 C deg 50.6 % 1022.8 hPa 0 C deg
1788265628 1012.1 hPa 31.2 C deg 51.5 % 1023 hPa 0 C deg
1788263799 1012.1 hPa 31.1 C deg 52.2 % 1023 hPa 0 C deg
1788261982 1012.4 hPa 31 C deg 52.9 % 1023.3 hPa 0 C deg
1788260139 1012.5 hPa 31 C deg 53.4 % 1023.4 hPa 0 C deg
1788260139 1012.5 hPa 31 C deg 53.4 % 1023.4 hPa 0 C deg
1788258308 1012.5 hPa 31 C deg 54.4 % 1023.5 hPa 0 C deg
1788256495 1012.8 hPa 30.9 C deg 57.2 % 1023.7 hPa 0 C deg
1788254655 1012.8 hPa 30.7 C deg 58.2 % 1023.8 hPa 0 C deg
1788252820 1012.8 hPa 30.7 C deg 58.8 % 1023.8 hPa 0 C deg
1788249156 1012.5 hPa 30.8 C deg 58.8 % 1023.4 hPa 0 C deg
1788247390 1012.3 hPa 30.2 C deg 60 % 1023.3 hPa 0 C deg
1788243681 1012.4 hPa 30.2 C deg 58.8 % 1023.4 hPa 0 C deg
1788241993 1012.4 hPa 30.2 C deg 58.2 % 1023.3 hPa 0 C deg
1788241993 1012.4 hPa 30.2 C deg 58.2 % 1023.3 hPa 0 C deg
*Used Equation Coefficients:
Press: 0, 1, 0
Temp.in: 0, 1, 0
Hum: 0, 1, 0
QNH: 0, 1, 0
Temp.out: 0, 1, 0

  • The parameter names for the analog channels will be Value1, Value2, Value3 (up to Value5) if station has not sent a PARAM-packet that specifies the parameter names for each analog channel.
  • Each analog value is a decimal number between 000 and 255 (according to APRS specifications). The receiver use the telemetry equation coefficientsto to restore the original sensor values. If no EQNS-packet with equation coefficients is sent we will show the values as is (this corresponds to the equation coefficients a=0, b=1 and c=0).
    The sent equation coefficients is used in the equation: a * value2 + b * value + c.
  • The units for the analog values will not be shown if station has not sent a UNIT-packet specifying what unit's to use.
  • The parameter names for the digital bits will be Bit1, Bit2, Bit3 (up to Bit8) if station has not sent a PARAM-packet that specifies the parameter names for each digital bit.
  • All bit labels will be named "On" if station has not sent a UNIT-packet that specifies the label of each bit.
  • A bit is considered to be On when the bit is 1 if station has not sent a BITS-packet that specifies another "Bit sense" (a BITS-packet specify the state of the bits that match the BIT labels)